{"data":{"norad_id":63070,"intl_designator":"2025-035U","name":"STARLINK-33604","alt_names":[],"object_type":"PAYLOAD","status":"ACTIVE","operator":null,"country":"US","launch_date":"2025-02-21","launch_site_code":"AFETR","launch_vehicle":null,"mission":null,"orbit_class":"UNKNOWN","rcs_meters":null,"size_class":null,"mass_kg":null,"dimensions":null,"purposes":["comms"],"wikipedia_slug":null,"has_3d_model":false,"image_url":null,"decayed_at":null,"tle_current":{"epoch":"2026-05-24T20:31:11.339904Z","epoch_age_seconds":94466,"freshness":"FRESH","line1":"1 63070U 25035U   26144.85499236  .00020335  00000+0  74595-3 0  9999","line2":"2 63070  43.0002  77.3375 0000547 274.7946  85.2843 15.27602430 71361","mean_motion":15.2760243,"eccentricity":5.47e-5,"inclination_deg":43.0002,"raan_deg":77.3375,"arg_perigee_deg":274.7946,"mean_anomaly_deg":85.2843,"bstar":0.00074595,"rev_number":7136,"period_min":94.265364581804,"perigee_km":482.60663016666,"apogee_km":483.35723657797,"semimajor_km":6861.1189333723,"source":"CELESTRAK","updated_at":"2026-05-25T13:38:19.875184Z"}}}